Location: Westminster
(33.3626°N, 96.4619°W)
Time: 20:45:41
(UTC+00:00)

Aurora 2 Rocket - Pass Details

Date: 03 December 2021
Orbit: 389 x 1731 km, 25.0° (Epoch: 26 January)

Event Time Altitude Azimuth Distance (km) Brightness Sun altitude
Rises 23:42:29 0° 252° (WSW) 2,706 8.6 -5.5°
Reaches altitude 10° 23:44:37 10° 242° (WSW) 1,960 7.0 -5.9°
Maximum altitude 23:48:44 33° 177° (S) 1,244 4.3 -6.7°
Drops below altitude 10° 23:54:21 10° 116° (ESE) 2,707 5.4 -7.8°
Enters shadow 23:57:40 - 108° (ESE) 3,877 6.2 -8.4°
